This is the latest recevied weather packets stored in our database for station/object KC5DP. If no packets are shown the sender has not sent any weather packets the latest 10 day(s).
| Time | Temp. | Humidity | Pressure | Rain* | Wind** | Luminosity | Snow |
|---|---|---|---|---|---|---|---|
| 1777464149 | 20° C | 99% | 1014.1 hPa | 0 mm | - | 31 W/m² | - |
| 1777463848 | 20° C | 99% | 1014.1 hPa | 0 mm | - | 25 W/m² | - |
| 1777462632 | 20° C | 99% | 1013.7 hPa | 0 mm | - | 9 W/m² | - |
| 1777462327 | 20° C | 99% | 1013.7 hPa | 0 mm | - | 6 W/m² | - |
| 1777462024 | 20° C | 99% | 1013.6 hPa | 0 mm | - | 4 W/m² | - |
| 1777461721 | 20° C | 99% | 1013.4 hPa | 0 mm | - | 3 W/m² | - |
| 1777461421 | 20° C | 99% | 1013.4 hPa | 0 mm | - | 1 W/m² | - |
| 1777461117 | 20° C | 99% | 1013.1 hPa | 0 mm | - | 1 W/m² | - |
| 1777460813 | 20° C | 99% | 1013.2 hPa | 0 mm | - | 0 W/m² | - |
| 1777460509 | 20° C | 99% | 1013 hPa | 0 mm | - | 0 W/m² | - |
| 1777460205 | 20.56° C | 99% | 1013.2 hPa | 0 mm | - | 0 W/m² | - |
| 1777459902 | 20.56° C | 99% | 1013 hPa | 0 mm | - | 0 W/m² | - |
| 1777459599 | 20.56° C | 99% | 1013.1 hPa | 0 mm | - | 0 W/m² | - |
| 1777458994 | 20.56° C | 99% | 1012.9 hPa | 0 mm | - | 0 W/m² | - |
| 1777458387 | 20.56° C | 99% | 1012.6 hPa | 0 mm | - | 0 W/m² | - |
| 1777458083 | 20.56° C | 99% | 1012.5 hPa | 0 mm | - | 0 W/m² | - |
| 1777457779 | 20.56° C | 99% | 1012.6 hPa | 0 mm | - | 0 W/m² | - |
| 1777457479 | 21.11° C | 99% | 1012.6 hPa | 0 mm | - | 0 W/m² | - |
| 1777457175 | 21.11° C | 99% | 1012.7 hPa | 0 mm | - | 0 W/m² | - |
| 1777455654 | 21.11° C | 99% | 1012.6 hPa | 0 mm | - | 0 W/m² | - |
| 1777455351 | 21.67° C | 98% | 1012.9 hPa | 0 mm | - | 0 W/m² | - |
| 1777455048 | 21.67° C | 98% | 1012.8 hPa | 0 mm | - | 0 W/m² | - |
| 1777454745 | 21.67° C | 98% | 1012.7 hPa | 0 mm | - | 0 W/m² | - |
| 1777454440 | 21.67° C | 98% | 1012.7 hPa | 0 mm | - | 0 W/m² | - |
| 1777454132 | 21.67° C | 98% | 1012.8 hPa | 0 mm | - | 0 W/m² | - |
* Rain latest hour (hover to see other rain measurements)
** Current wind speed in m/s (hover to see current wind gust speed)